| time (UTC) | temp F | wind direction | speed MPH | gust MPH | rain 1hr in | rain 24hr in | rain mn in | humidity % | barometer mb |
| 20260508121533 | 70 | 0 | 2.0 | 4.0 | 0.00 | 0.00 | 0.00 | 88 | 1015.5 |
| 20260508120029 | 69 | 216 | 1.0 | 3.0 | 0.00 | 0.00 | 0.00 | 88 | 1015.3 |
| 20260508114537 | 67 | 180 | 1.0 | 3.0 | 0.00 | 0.00 | 0.00 | 88 | 1015.2 |
| 20260508113033 | 66 | 0 | 0.0 | 0.0 | 0.00 | 0.00 | 0.00 | 87 | 1015.1 |
| 20260508111529 | 66 | 0 | 0.0 | 0.0 | 0.00 | 0.00 | 0.00 | 87 | 1014.9 |
| 20260508110036 | 65 | 0 | 0.0 | 0.0 | 0.00 | 0.00 | 0.00 | 86 | 1014.5 |
| 20260508104532 | 65 | 0 | 0.0 | 0.0 | 0.00 | 0.00 | 0.00 | 86 | 1014.4 |
| 20260508103038 | 66 | 283 | 0.0 | 2.0 | 0.00 | 0.00 | 0.00 | 85 | 1014.2 |
| 20260508101538 | 66 | 0 | 0.0 | 0.0 | 0.00 | 0.00 | 0.00 | 85 | 1013.9 |
| 20260508100029 | 67 | 0 | 0.0 | 0.0 | 0.00 | 0.00 | 0.00 | 85 | 1013.7 |
| 20260508094543 | 67 | 0 | 0.0 | 0.0 | 0.00 | 0.00 | 0.00 | 85 | 1013.4 |
| 20260508093031 | 67 | 0 | 0.0 | 0.0 | 0.00 | 0.00 | 0.00 | 84 | 1013.4 |
| 20260508091547 | 67 | 0 | 0.0 | 0.0 | 0.00 | 0.00 | 0.00 | 83 | 1013.5 |
| 20260508090042 | 67 | 0 | 0.0 | 0.0 | 0.00 | 0.00 | 0.00 | 83 | 1013.5 |
| 20260508084530 | 67 | 0 | 0.0 | 0.0 | 0.00 | 0.00 | 0.00 | 82 | 1013.5 |
| 20260508083029 | 68 | 0 | 0.0 | 0.0 | 0.00 | 0.00 | 0.00 | 81 | 1013.7 |
| 20260508081538 | 69 | 0 | 0.0 | 0.0 | 0.00 | 0.00 | 0.00 | 81 | 1013.6 |
| 20260508080032 | 69 | 0 | 0.0 | 0.0 | 0.00 | 0.00 | 0.00 | 80 | 1013.6 |
| 20260508074531 | 69 | 0 | 0.0 | 0.0 | 0.00 | 0.00 | 0.00 | 80 | 1013.6 |
| 20260508073034 | 70 | 0 | 0.0 | 0.0 | 0.00 | 0.00 | 0.00 | 79 | 1013.6 |
| 20260508071535 | 70 | 0 | 0.0 | 0.0 | 0.00 | 0.00 | 0.00 | 78 | 1013.6 |
| 20260508070048 | 70 | 0 | 0.0 | 0.0 | 0.00 | 0.00 | 0.00 | 76 | 1013.5 |
| 20260508064535 | 71 | 0 | 0.0 | 0.0 | 0.00 | 0.00 | 0.00 | 76 | 1013.4 |
| 20260508063031 | 72 | 0 | 0.0 | 0.0 | 0.00 | 0.00 | 0.00 | 75 | 1013.6 |
| 20260508061534 | 72 | 0 | 0.0 | 0.0 | 0.00 | 0.00 | 0.00 | 72 | 1013.7 |
| 20260508060035 | 72 | 0 | 0.0 | 0.0 | 0.00 | 0.00 | 0.00 | 71 | 1013.8 |
| 20260508054541 | 73 | 0 | 0.0 | 0.0 | 0.00 | 0.00 | 0.00 | 70 | 1014.1 |
| 20260508053029 | 74 | 0 | 0.0 | 0.0 | 0.00 | 0.00 | 0.00 | 69 | 1014.0 |
| 20260508051529 | 74 | 0 | 0.0 | 0.0 | 0.00 | 0.00 | 0.00 | 68 | 1014.1 |
| 20260508050032 | 75 | 0 | 0.0 | 0.0 | 0.00 | 0.00 | 0.00 | 67 | 1014.1 |
| 20260508044533 | 75 | 0 | 0.0 | 2.0 | 0.00 | 0.00 | 0.00 | 66 | 1014.3 |
| 20260508043031 | 76 | 284 | 0.0 | 3.0 | 0.00 | 0.00 | 0.00 | 65 | 1014.1 |
| 20260508041531 | 76 | 284 | 1.0 | 3.0 | 0.00 | 0.00 | 0.00 | 65 | 1014.2 |
| 20260508040035 | 75 | 287 | 1.0 | 2.0 | 0.00 | 0.00 | 0.00 | 65 | 1014.1 |
| 20260508034537 | 74 | 0 | 0.0 | 1.0 | 0.00 | 0.00 | 0.00 | 64 | 1014.1 |
| 20260508033029 | 74 | 0 | 0.0 | 0.0 | 0.00 | 0.00 | 0.00 | 64 | 1014.0 |
| 20260508031534 | 75 | 0 | 0.0 | 0.0 | 0.00 | 0.00 | 0.00 | 63 | 1013.9 |
| 20260508030033 | 75 | 0 | 0.0 | 0.0 | 0.00 | 0.00 | 0.00 | 64 | 1013.9 |
| 20260508024530 | 76 | 0 | 0.0 | 0.0 | 0.00 | 0.00 | 0.00 | 65 | 1013.7 |
| 20260508023037 | 78 | 0 | 0.0 | 0.0 | 0.00 | 0.00 | 0.00 | 65 | 1013.8 |
| 20260508021531 | 79 | 0 | 0.0 | 0.0 | 0.00 | 0.00 | 0.00 | 63 | 1013.6 |
| 20260508020029 | 79 | 0 | 0.0 | 0.0 | 0.00 | 0.00 | 0.00 | 57 | 1013.4 |
| 20260508014530 | 79 | 0 | 0.0 | 2.0 | 0.00 | 0.00 | 0.00 | 57 | 1013.4 |
| 20260508013031 | 80 | 0 | 0.0 | 2.0 | 0.00 | 0.00 | 0.00 | 61 | 1013.3 |
| 20260508011538 | 80 | 183 | 0.0 | 2.0 | 0.00 | 0.00 | 0.00 | 66 | 1013.2 |
| 20260508010031 | 81 | 0 | 0.0 | 2.0 | 0.00 | 0.00 | 0.00 | 69 | 1013.0 |
| 20260508004534 | 82 | 0 | 0.0 | 2.0 | 0.00 | 0.00 | 0.00 | 68 | 1013.0 |
| 20260508003034 | 83 | 156 | 0.0 | 5.0 | 0.00 | 0.00 | 0.00 | 66 | 1012.6 |
| 20260508001544 | 84 | 168 | 0.0 | 4.0 | 0.00 | 0.00 | 0.00 | 65 | 1012.5 |
| 20260508000031 | 86 | 102 | 0.0 | 2.0 | 0.00 | 0.00 | 0.00 | 62 | 1012.3 |
| 20260507234534 | 89 | 116 | 1.0 | 2.0 | 0.00 | 0.00 | 0.00 | 59 | 1012.2 |
| 20260507233035 | 92 | 0 | 0.0 | 1.0 | 0.00 | 0.00 | 0.00 | 53 | 1012.2 |
| 20260507231532 | 93 | 206 | 0.0 | 3.0 | 0.00 | 0.00 | 0.00 | 41 | 1012.2 |
| 20260507230035 | 94 | 225 | 1.0 | 6.0 | 0.00 | 0.00 | 0.00 | 39 | 1012.1 |
| 20260507224535 | 94 | 242 | 3.0 | 7.0 | 0.00 | 0.00 | 0.00 | 34 | 1012.1 |
| 20260507223031 | 94 | 194 | 1.0 | 6.0 | 0.00 | 0.00 | 0.00 | 40 | 1012.2 |
| 20260507221531 | 94 | 200 | 4.0 | 11.0 | 0.00 | 0.00 | 0.00 | 39 | 1012.0 |
| 20260507220031 | 94 | 296 | 4.0 | 12.0 | 0.00 | 0.00 | 0.00 | 34 | 1012.1 |
| 20260507214530 | 94 | 298 | 1.0 | 9.0 | 0.00 | 0.00 | 0.00 | 38 | 1012.1 |
| 20260507213036 | 94 | 205 | 3.0 | 10.0 | 0.00 | 0.00 | 0.00 | 43 | 1012.3 |
| 20260507211543 | 94 | 196 | 4.0 | 9.0 | 0.00 | 0.00 | 0.00 | 41 | 1012.3 |
| 20260507210035 | 94 | 190 | 4.0 | 10.0 | 0.00 | 0.00 | 0.00 | 41 | 1012.6 |
| 20260507204533 | 94 | 229 | 6.0 | 12.0 | 0.00 | 0.00 | 0.00 | 42 | 1012.7 |
| 20260507203032 | 94 | 188 | 5.0 | 14.0 | 0.00 | 0.00 | 0.00 | 40 | 1012.9 |
| 20260507201541 | 94 | 273 | 4.0 | 14.0 | 0.00 | 0.00 | 0.00 | 39 | 1013.0 |
| 20260507200037 | 94 | 268 | 5.0 | 16.0 | 0.00 | 0.00 | 0.00 | 38 | 1013.0 |
| 20260507194532 | 94 | 233 | 7.0 | 14.0 | 0.00 | 0.00 | 0.00 | 35 | 1013.2 |
| 20260507193039 | 93 | 194 | 4.0 | 13.0 | 0.00 | 0.00 | 0.00 | 35 | 1013.4 |
| 20260507191531 | 93 | 251 | 6.0 | 13.0 | 0.00 | 0.00 | 0.00 | 38 | 1013.6 |
| 20260507190033 | 93 | 217 | 6.0 | 13.0 | 0.00 | 0.00 | 0.00 | 41 | 1013.7 |
| 20260507184534 | 93 | 280 | 6.0 | 14.0 | 0.00 | 0.00 | 0.00 | 41 | 1014.1 |
| 20260507183033 | 93 | 237 | 5.0 | 13.0 | 0.00 | 0.00 | 0.00 | 42 | 1014.4 |
| 20260507181531 | 92 | 215 | 4.0 | 16.0 | 0.00 | 0.00 | 0.00 | 46 | 1014.7 |
| 20260507180044 | 92 | 223 | 3.0 | 11.0 | 0.00 | 0.00 | 0.00 | 49 | 1015.0 |
| 20260507174534 | 91 | 214 | 3.0 | 16.0 | 0.00 | 0.00 | 0.00 | 53 | 1014.9 |
| 20260507173041 | 91 | 205 | 5.0 | 16.0 | 0.00 | 0.00 | 0.00 | 51 | 1015.1 |
| 20260507171530 | 90 | 201 | 3.0 | 14.0 | 0.00 | 0.00 | 0.00 | 52 | 1015.1 |
| 20260507170044 | 90 | 231 | 5.0 | 11.0 | 0.00 | 0.00 | 0.00 | 53 | 1015.3 |
| 20260507164531 | 90 | 179 | 6.0 | 12.0 | 0.00 | 0.00 | 0.00 | 54 | 1015.1 |
| 20260507163031 | 89 | 191 | 2.0 | 10.0 | 0.00 | 0.00 | 0.00 | 56 | 1015.5 |
| 20260507161531 | 89 | 260 | 3.0 | 11.0 | 0.00 | 0.00 | 0.00 | 56 | 1015.6 |
| 20260507160030 | 87 | 242 | 5.0 | 9.0 | 0.00 | 0.00 | 0.00 | 57 | 1015.8 |
| 20260507154530 | 87 | 226 | 5.0 | 14.0 | 0.00 | 0.00 | 0.00 | 58 | 1015.8 |
| 20260507153031 | 85 | 146 | 6.0 | 13.0 | 0.00 | 0.00 | 0.00 | 60 | 1016.1 |
| 20260507151532 | 85 | 250 | 6.0 | 11.0 | 0.00 | 0.00 | 0.00 | 61 | 1016.3 |
| 20260507150033 | 83 | 169 | 8.0 | 13.0 | 0.00 | 0.00 | 0.00 | 63 | 1016.2 |
| 20260507144532 | 83 | 232 | 3.0 | 11.0 | 0.00 | 0.00 | 0.00 | 67 | 1016.3 |
| 20260507143030 | 82 | 267 | 4.0 | 11.0 | 0.00 | 0.00 | 0.00 | 69 | 1016.4 |
| 20260507141529 | 81 | 218 | 6.0 | 11.0 | 0.00 | 0.00 | 0.00 | 69 | 1016.2 |
| 20260507140035 | 81 | 153 | 4.0 | 11.0 | 0.00 | 0.00 | 0.00 | 70 | 1016.4 |
| 20260507134530 | 80 | 234 | 4.0 | 11.0 | 0.00 | 0.00 | 0.00 | 71 | 1016.4 |
| 20260507133030 | 78 | 165 | 7.0 | 15.0 | 0.00 | 0.00 | 0.00 | 72 | 1016.4 |
| 20260507131532 | 77 | 193 | 3.0 | 11.0 | 0.00 | 0.00 | 0.00 | 77 | 1016.3 |
| 20260507130035 | 75 | 196 | 3.0 | 10.0 | 0.00 | 0.00 | 0.00 | 82 | 1016.4 |
| 20260507124531 | 73 | 157 | 3.0 | 7.0 | 0.00 | 0.00 | 0.00 | 85 | 1016.3 |
| 20260507123034 | 71 | 221 | 2.0 | 8.0 | 0.00 | 0.00 | 0.00 | 86 | 1016.4 |